Location: Montreal
(45.5087°N, 73.5540°W)
Time: 21:05:58
(UTC-04:00)

Amateur Radio Satellites - All Passes

Search period start: 21 October 2017 20:35
Search period end: 22 October 2017 20:35
Location: Montreal, 45.5087°N, 73.5540°W

Satellite Date Start Highest point End Downlink Frequencies (MHz)
Time Altitude Azimuth
Oscar 11 21 Oct 20:40:13 20:44:33 89° 262° (W) 20:48:55 .
AAUSAT CUBESAT 2 21 Oct 20:42:05 20:45:47 32° 264° (W) 20:49:30 437.432
EO-88 21 Oct 20:46:23 20:47:47 12° 62° (ENE) 20:49:11 145.990 - 145.960
Max Valier Satellite 21 Oct 20:57:53 21:00:46 22° 67° (ENE) 21:03:40 145.860
XW-2A 21 Oct 21:03:48 21:04:33 11° 270° (W) 21:05:19 145.665 - 145.685
HO-68 21 Oct 21:08:04 21:11:53 15° 274° (W) 21:15:43 435.675
BEESAT 2 21 Oct 21:09:50 21:13:50 56° 51° (NE) 21:17:47 435.950
AO-73 21 Oct 21:19:49 21:23:39 26° 266° (W) 21:27:32 145.935
BEESAT 3 21 Oct 21:23:27 21:27:03 33° 243° (WSW) 21:30:34 437.485
UNISAT 6 21 Oct 21:32:26 21:34:27 13° 88° (E) 21:36:26 437.425
YUBILEINY 21 Oct 21:42:03 21:50:26 52° 271° (W) 21:58:52 435.215
AO-85 21 Oct 21:43:30 21:48:01 82° 52° (NE) 21:52:55 145.980
ZACube-1 21 Oct 21:44:27 21:46:58 14° 271° (W) 21:49:29 437.345
TIGRISAT 21 Oct 21:46:06 21:48:58 16° 90° (E) 21:51:47 435.000
FO-29 21 Oct 21:49:03 21:55:58 73° 103° (ESE) 22:03:36 435.910
DELFI C3 21 Oct 21:55:43 21:59:33 57° 259° (W) 22:03:26 145.870
STRAND 1 21 Oct 22:06:42 22:10:04 18° 301° (WNW) 22:13:27 437.568
PRISM 21 Oct 22:10:08 22:11:35 12° 89° (E) 22:13:03 437.425
O/OREOS (USA 219) 21 Oct 22:11:40 22:15:16 22° 308° (NW) 22:18:55 437.305
EO-88 21 Oct 22:17:21 22:20:57 57° 259° (W) 22:24:34 145.990 - 145.960
RS-15 21 Oct 22:21:45 22:24:41 11° 90° (E) 22:27:37 29.354- 29.394
Max Valier Satellite 21 Oct 22:31:09 22:34:27 29° 264° (W) 22:37:45 145.860
BEESAT 2 21 Oct 22:48:38 22:51:08 16° 249° (WSW) 22:53:36 435.950
ESTCUBE 1 21 Oct 22:55:44 22:59:54 39° 70° (ENE) 23:04:05 437.505/2401.250
LO-87 21 Oct 23:01:48 23:05:20 60° 74° (ENE) 23:08:56 145.935 - 145.965
UNISAT 6 21 Oct 23:07:05 23:11:42 73° 286° (WNW) 23:16:11 437.425
SPROUT 21 Oct 23:18:50 23:21:47 18° 63° (ENE) 23:24:44 437.525
TIGRISAT 21 Oct 23:21:30 23:26:03 57° 288° (WNW) 23:30:28 435.000
AO-85 21 Oct 23:25:30 23:27:57 14° 250° (WSW) 23:30:28 145.980
FO-29 21 Oct 23:35:02 23:40:30 27° 300° (WNW) 23:46:24 435.910
PRISM 21 Oct 23:43:11 23:47:18 68° 286° (WNW) 23:51:24 437.425
EO-79 21 Oct 23:45:30 23:47:40 14° 90° (E) 23:49:49 145.935-145.965
POLYITAN 1 21 Oct 23:50:24 23:52:56 15° 90° (E) 23:55:27 437.675
AIST 2D 21 Oct 23:59:40 00:03:04 50° 100° (E) 00:06:26 435.315
QB50P2 22 Oct 00:09:58 00:13:36 27° 95° (E) 00:17:13 145.880/145.840
NANOSAT C BR1 22 Oct 00:11:40 00:15:04 23° 94° (E) 00:18:25 145.865
VELOX 1 22 Oct 00:14:34 00:18:45 46° 71° (ENE) 00:22:59 145.980
DUCHIFAT 1 22 Oct 00:21:22 00:24:53 25° 94° (E) 00:28:23 145.980
RS-15 22 Oct 00:22:23 00:34:07 54° 112° (ESE) 00:45:49 29.354- 29.394
ESTCUBE 1 22 Oct 00:33:18 00:36:50 23° 267° (W) 00:40:24 437.505/2401.250
SPROUT 22 Oct 00:53:09 00:57:18 48° 261° (W) 01:01:30 437.525
50 SAT 22 Oct 00:53:57 00:56:51 30° 70° (ENE) 00:59:46 437.505
DX 1 22 Oct 01:15:28 01:19:40 52° 71° (ENE) 01:23:54 434.975-435.025
Gurwin Techsat 1B 22 Oct 01:19:02 01:20:40 11° 86° (E) 01:22:17 435.225
EO-79 22 Oct 01:19:36 01:23:50 60° 287° (WNW) 01:28:00 145.935-145.965
POLYITAN 1 22 Oct 01:24:52 01:29:03 53° 288° (WNW) 01:33:10 437.675
AIST 2D 22 Oct 01:34:28 01:35:49 12° 297° (WNW) 01:37:09 435.315
UKube-1 22 Oct 01:35:56 01:40:07 55° 71° (ENE) 01:44:21 .
QB50P2 22 Oct 01:45:37 01:49:22 30° 292° (WNW) 01:53:05 145.880/145.840
NANOSAT C BR1 22 Oct 01:46:58 01:50:51 35° 291° (WNW) 01:54:42 145.865
ITUPSAT 1 22 Oct 01:48:30 01:50:46 13° 57° (ENE) 01:53:02 437.325
VELOX 1 22 Oct 01:52:23 01:55:26 18° 268° (W) 01:58:32 145.980
DUCHIFAT 1 22 Oct 01:56:48 02:00:34 32° 292° (WNW) 02:04:19 145.980
BUGSAT 1 22 Oct 01:57:17 02:01:32 72° 102° (ESE) 02:05:42 437.445
BEESAT 22 Oct 02:01:48 02:04:56 18° 60° (ENE) 02:08:05 436.000
Oscar 19 22 Oct 02:10:58 02:15:55 47° 99° (E) 02:20:50 437.125/150
50 SAT 22 Oct 02:27:13 02:29:14 15° 267° (W) 02:31:17 437.505
NO-84 22 Oct 02:27:40 02:31:17 27° 131° (SE) 02:34:54 435.350 FM
RS-15 22 Oct 02:34:33 02:46:40 58° 317° (NW) 02:58:44 29.354- 29.394
MOZHAYETS 4 22 Oct 02:37:43 02:41:57 37° 69° (ENE) 02:46:13
M-CUBED/EXP-1 PRIME 22 Oct 02:39:44 02:43:13 50° 106° (ESE) 02:46:58 437.505
DX 1 22 Oct 02:53:27 02:56:09 16° 269° (W) 02:58:53 434.975-435.025
CUBESAT XI-V 22 Oct 02:55:38 02:58:07 15° 60° (ENE) 03:00:36 437.345
Gurwin Techsat 1B 22 Oct 02:56:03 03:01:24 83° 105° (ESE) 03:06:44 435.225
AO-7 22 Oct 03:05:42 03:11:35 21° 90° (E) 03:17:25 .
UKube-1 22 Oct 03:13:57 03:16:29 15° 269° (W) 03:19:00 .
ITUPSAT 1 22 Oct 03:23:03 03:27:53 89° 255° (WSW) 03:32:44 437.325
BUGSAT 1 22 Oct 03:34:21 03:36:18 13° 300° (WNW) 03:38:14 437.445
BEESAT 22 Oct 03:37:28 03:42:13 64° 258° (WSW) 03:47:00 436.000
Oscar 19 22 Oct 03:50:50 03:54:57 25° 297° (WNW) 03:59:04 437.125/150
KKS-1 22 Oct 03:53:32 03:56:20 17° 61° (ENE) 03:59:10 437.445
NO-84 22 Oct 04:04:14 04:08:30 61° 329° (NNW) 04:12:41 435.350 FM
MOZHAYETS 4 22 Oct 04:15:20 04:19:12 25° 266° (W) 04:23:03
M-CUBED/EXP-1 PRIME 22 Oct 04:15:22 04:17:22 14° 301° (WNW) 04:19:26 437.505
STARS 22 Oct 04:21:48 04:24:00 14° 59° (ENE) 04:26:14 437.465
ITAMSAT 1 22 Oct 04:26:32 04:31:42 55° 101° (E) 04:36:50 435.822/435.867
CUBESAT XI-V 22 Oct 04:30:17 04:34:55 74° 258° (WSW) 04:39:32 437.345
Gurwin Techsat 1B 22 Oct 04:37:28 04:40:40 16° 303° (WNW) 04:43:51 435.225
RS-15 22 Oct 04:51:53 05:02:30 32° 349° (N) 05:12:52 29.354- 29.394
AO-7 22 Oct 04:57:01 05:05:22 90° 310° (NW) 05:13:43 .
O/OREOS (USA 219) 22 Oct 05:00:22 05:03:41 19° 50° (NE) 05:06:57 437.305
ITUPSAT 1 22 Oct 05:05:19 05:06:23 11° 273° (W) 05:07:29 437.325
KKS-1 22 Oct 05:28:03 05:32:26 59° 258° (WSW) 05:36:51 437.445
NO-84 22 Oct 05:43:02 05:46:34 24° 348° (NNW) 05:49:57 435.350 FM
LilacSat-2 22 Oct 05:49:35 05:50:12 10° 89° (E) 05:50:48 437.200
XW-2D 22 Oct 05:53:44 05:54:55 11° 89° (E) 05:56:05 145.860 - 145.880
STARS 22 Oct 05:55:23 05:59:45 74° 257° (WSW) 06:04:11 437.465
DOVE 4 22 Oct 06:05:51 06:10:52 75° 102° (ESE) 06:16:05 437.250
XW-2B 22 Oct 06:06:18 06:08:34 15° 91° (E) 06:10:49 145.730 - 145.750
ITAMSAT 1 22 Oct 06:06:45 06:10:47 23° 299° (WNW) 06:14:49 435.822/435.867
STRAND 1 22 Oct 06:07:15 06:10:48 19° 60° (ENE) 06:14:21 437.568
XW-2C 22 Oct 06:28:53 06:32:08 28° 96° (E) 06:35:23 145.795 - 145.815
SO-50 22 Oct 06:38:16 06:42:35 50° 120° (ESE) 06:46:57 436.795
O/OREOS (USA 219) 22 Oct 06:38:57 06:43:31 60° 250° (WSW) 06:48:00 437.305
HO-68 22 Oct 06:42:33 06:47:14 18° 88° (E) 06:51:53 435.675
CUTE-I 22 Oct 06:49:02 06:54:06 40° 98° (E) 06:59:08 437.470
AO-7 22 Oct 06:50:51 06:57:09 25° 311° (NW) 07:03:28 .
KAITUO 1B 22 Oct 07:06:34 07:10:12 58° 100° (E) 07:13:50 145.475/437.950
RS-15 22 Oct 07:08:29 07:19:30 37° 23° (NNE) 07:30:02 29.354- 29.394
XW-2F 22 Oct 07:11:42 07:15:27 87° 103° (ESE) 07:19:09 145.980 - 146.000
NUDT-PHONESAT 22 Oct 07:17:28 07:21:08 77° 103° (ESE) 07:24:47 437.300
LilacSat-2 22 Oct 07:21:08 07:24:51 62° 286° (WNW) 07:28:34 437.200
NO-84 22 Oct 07:21:39 07:24:59 23° 9° (N) 07:28:09 435.350 FM
XW-2D 22 Oct 07:25:45 07:29:27 56° 286° (WNW) 07:33:06 145.860 - 145.880
XW-2B 22 Oct 07:39:24 07:42:56 41° 288° (WNW) 07:46:27 145.730 - 145.750
STRAND 1 22 Oct 07:44:22 07:49:27 66° 257° (WSW) 07:54:36 437.568
DOVE 4 22 Oct 07:44:52 07:48:01 17° 299° (WNW) 07:51:13 437.250
CUBEBUG 2 22 Oct 07:45:14 07:49:17 29° 94° (E) 07:53:11 437.445
ZACube-1 22 Oct 07:54:42 07:55:32 10° 87° (E) 07:56:22 437.345
CUTE 1.7 + AOD 2 22 Oct 08:00:06 08:04:18 67° 101° (E) 08:08:28 437.475
XW-2C 22 Oct 08:03:14 08:06:12 22° 293° (WNW) 08:09:10 145.795 - 145.815
SEEDS 22 Oct 08:03:25 08:07:25 44° 98° (E) 08:11:25 437.485
FO-29 22 Oct 08:05:02 08:09:50 36° 64° (ENE) 08:15:02 435.910
PCSat 22 Oct 08:05:28 08:10:42 53° 116° (ESE) 08:15:59 145.827
UWE-3 22 Oct 08:19:01 08:23:12 36° 96° (E) 08:27:14 435.000/436.395/437.385
SO-50 22 Oct 08:19:30 08:23:17 26° 320° (NW) 08:27:06 436.795
XW-2A 22 Oct 08:20:10 08:23:17 36° 98° (E) 08:26:24 145.665 - 145.685
AAUSAT CUBESAT 2 22 Oct 08:21:23 08:25:05 31° 96° (E) 08:28:46 437.432
Oscar 11 22 Oct 08:26:30 08:28:53 14° 90° (E) 08:31:15 .
HO-68 22 Oct 08:28:38 08:35:54 90° 286° (WNW) 08:43:07 435.675
CUTE-I 22 Oct 08:29:20 08:34:00 31° 296° (WNW) 08:38:40 437.470
UNISAT 6 22 Oct 08:32:52 08:35:47 17° 61° (ENE) 08:38:42 437.425
nSIGHT-1 22 Oct 08:40:10 08:41:04 11° 132° (SE) 08:41:58 .
KAITUO 1B 22 Oct 08:42:16 08:43:43 12° 298° (WNW) 08:45:10 145.475/437.950
TIGRISAT 22 Oct 08:46:30 08:49:54 20° 63° (ENE) 08:53:19 435.000
YUBILEINY 22 Oct 08:49:21 08:57:14 41° 86° (E) 09:05:09 435.215
NO-84 22 Oct 08:59:09 09:03:05 54° 30° (NNE) 09:06:43 435.350 FM
PRISM 22 Oct 09:01:46 09:03:24 12° 60° (ENE) 09:05:00 437.425
AO-73 22 Oct 09:04:44 09:09:00 51° 99° (E) 09:13:08 145.935
ISS 22 Oct 09:16:24 09:18:54 21° 137° (SE) 09:21:26 437.550
CUBEBUG 2 22 Oct 09:21:44 09:25:52 32° 292° (WNW) 09:29:53 437.445
RS-15 22 Oct 09:21:56 09:34:03 82° 53° (NE) 09:45:26 29.354- 29.394
ZACube-1 22 Oct 09:28:02 09:32:26 79° 285° (WNW) 09:36:41 437.345
DELFI C3 22 Oct 09:31:14 09:33:33 15° 91° (E) 09:35:52 145.870
CUTE 1.7 + AOD 2 22 Oct 09:37:32 09:39:36 13° 299° (WNW) 09:41:40 437.475
SEEDS 22 Oct 09:39:53 09:42:48 19° 296° (WNW) 09:45:42 437.485
PCSat 22 Oct 09:49:39 09:54:23 30° 316° (NW) 09:59:08 145.827
FO-29 22 Oct 09:50:15 09:55:00 33° 266° (W) 10:00:06 435.910
XW-2A 22 Oct 09:53:51 09:55:42 14° 295° (WNW) 09:57:31 145.665 - 145.685
UWE-3 22 Oct 09:55:47 09:59:28 25° 295° (WNW) 10:03:03 435.000/436.395/437.385
AAUSAT CUBESAT 2 22 Oct 09:57:02 10:00:25 25° 293° (WNW) 10:03:47 437.432
Max Valier Satellite 22 Oct 09:58:48 10:01:36 20° 94° (E) 10:04:21 145.860
Oscar 11 22 Oct 10:01:09 10:05:23 58° 287° (WNW) 10:09:36 .
UNISAT 6 22 Oct 10:07:18 10:11:57 67° 258° (WSW) 10:16:39 437.425
nSIGHT-1 22 Oct 10:13:39 10:16:50 74° 148° (SSE) 10:20:01 .
HO-68 22 Oct 10:17:35 10:22:43 22° 308° (NW) 10:27:51 435.675
TIGRISAT 22 Oct 10:21:38 10:26:11 52° 261° (W) 10:30:49 435.000
PRISM 22 Oct 10:34:04 10:38:05 72° 257° (WSW) 10:42:10 437.425
AIST 2D 22 Oct 10:36:00 10:38:55 25° 69° (ENE) 10:41:52 435.315
NO-84 22 Oct 10:37:04 10:40:12 24° 230° (SW) 10:43:08 435.350 FM
EO-79 22 Oct 10:40:05 10:42:30 15° 61° (ENE) 10:44:55 145.935-145.965
AO-73 22 Oct 10:41:56 10:44:48 17° 298° (WNW) 10:47:38 145.935
POLYITAN 1 22 Oct 10:45:05 10:47:48 17° 62° (ENE) 10:50:32 437.675
YUBILEINY 22 Oct 10:45:31 10:53:52 49° 287° (WNW) 11:02:18 435.215
ISS 22 Oct 10:51:53 10:55:07 65° 335° (NNW) 10:58:22 437.550
QB50P2 22 Oct 11:04:26 11:08:04 27° 67° (ENE) 11:11:42 145.880/145.840
DELFI C3 22 Oct 11:04:44 11:08:34 47° 288° (WNW) 11:12:23 145.870
NANOSAT C BR1 22 Oct 11:05:42 11:09:05 23° 65° (ENE) 11:12:28 145.865
BEESAT 3 22 Oct 11:14:58 11:18:00 21° 113° (ESE) 11:21:03 437.485
DUCHIFAT 1 22 Oct 11:15:02 11:18:32 25° 66° (ENE) 11:22:03 145.980
EO-88 22 Oct 11:17:06 11:20:41 60° 286° (WNW) 11:24:15 145.990 - 145.960
Max Valier Satellite 22 Oct 11:32:13 11:35:27 29° 291° (WNW) 11:38:38 145.860
RS-15 22 Oct 11:35:32 11:45:09 31° 257° (WSW) 11:54:25 29.354- 29.394
nSIGHT-1 22 Oct 11:50:25 11:53:19 31° 348° (NNW) 11:56:15 .
Oscar 19 22 Oct 11:53:58 11:56:27 14° 56° (NE) 11:58:58 437.125/150
LO-87 22 Oct 11:59:32 12:03:07 54° 101° (E) 12:06:40 145.935 - 145.965
AO-85 22 Oct 12:02:52 12:04:27 12° 109° (ESE) 12:06:03 145.980
AIST 2D 22 Oct 12:09:21 12:12:05 21° 266° (W) 12:14:49 435.315
EO-79 22 Oct 12:13:31 12:17:45 63° 259° (W) 12:22:01 145.935-145.965
POLYITAN 1 22 Oct 12:18:57 12:23:09 55° 260° (W) 12:27:23 437.675
ESTCUBE 1 22 Oct 12:22:04 12:26:32 63° 101° (ESE) 12:30:59 437.505/2401.250
AO-7 22 Oct 12:22:12 12:23:47 11° 33° (NNE) 12:25:23 .
ISS 22 Oct 12:29:07 12:31:59 27° 354° (N) 12:34:52 437.550
SPROUT 22 Oct 12:36:45 12:40:14 23° 94° (E) 12:43:41 437.525
BEESAT 2 22 Oct 12:39:52 12:43:44 48° 120° (ESE) 12:47:39 435.950
QB50P2 22 Oct 12:39:59 12:43:45 30° 264° (W) 12:47:34 145.880/145.840
NANOSAT C BR1 22 Oct 12:40:39 12:44:35 36° 263° (W) 12:48:33 145.865
Gurwin Techsat 1B 22 Oct 12:40:56 12:45:10 25° 62° (ENE) 12:49:25 435.225
BUGSAT 1 22 Oct 12:48:27 12:52:37 66° 73° (ENE) 12:56:51 437.445
DUCHIFAT 1 22 Oct 12:50:14 12:54:03 32° 263° (W) 12:57:55 145.980
YUBILEINY 22 Oct 12:51:26 12:53:22 11° 313° (NW) 12:55:19 435.215
BEESAT 3 22 Oct 12:51:26 12:55:17 43° 311° (NW) 12:59:10 437.485
nSIGHT-1 22 Oct 13:27:21 13:30:11 28° 8° (N) 13:33:01 .
SO-50 22 Oct 13:27:30 13:30:37 18° 33° (NNE) 13:33:45 436.795
M-CUBED/EXP-1 PRIME 22 Oct 13:27:55 13:31:16 82° 253° (WSW) 13:34:32 437.505
Oscar 19 22 Oct 13:29:50 13:35:00 86° 77° (ENE) 13:40:11 437.125/150
LO-87 22 Oct 13:34:31 13:36:04 12° 297° (WNW) 13:37:38 145.935 - 145.965
VELOX 1 22 Oct 13:38:10 13:42:37 69° 102° (ESE) 13:47:03 145.980
AO-85 22 Oct 13:40:22 13:44:14 67° 309° (NW) 13:48:15 145.980
50 SAT 22 Oct 13:42:49 13:45:19 20° 95° (E) 13:47:48 437.505
ESTCUBE 1 22 Oct 14:00:09 14:02:50 16° 299° (WNW) 14:05:32 437.505/2401.250
ISS 22 Oct 14:06:00 14:09:02 34° 14° (NNE) 14:12:05 437.550
AO-7 22 Oct 14:06:48 14:14:12 38° 57° (ENE) 14:21:38 .
ITAMSAT 1 22 Oct 14:09:52 14:13:04 17° 57° (ENE) 14:16:15 435.822/435.867
SPROUT 22 Oct 14:12:16 14:16:11 35° 291° (WNW) 14:20:05 437.525
BEESAT 2 22 Oct 14:18:25 14:21:42 23° 319° (NW) 14:24:59 435.950
Gurwin Techsat 1B 22 Oct 14:19:38 14:24:48 51° 260° (W) 14:29:59 435.225
BUGSAT 1 22 Oct 14:26:36 14:28:25 12° 271° (W) 14:30:15 437.445
DX 1 22 Oct 14:37:06 14:41:30 73° 103° (ESE) 14:45:52 434.975-435.025
UKube-1 22 Oct 14:56:15 15:00:36 74° 104° (ESE) 15:04:55 .
nSIGHT-1 22 Oct 15:03:36 15:06:49 76° 29° (NNE) 15:10:00 .
SO-50 22 Oct 15:07:08 15:11:46 84° 56° (NE) 15:16:26 436.795
PCSat 22 Oct 15:08:33 15:11:59 17° 34° (NNE) 15:15:25 145.827
Oscar 19 22 Oct 15:12:44 15:14:59 13° 272° (W) 15:17:16 437.125/150
50 SAT 22 Oct 15:14:52 15:17:36 24° 291° (WNW) 15:20:19 437.505
VELOX 1 22 Oct 15:16:05 15:18:31 15° 300° (WNW) 15:20:56 145.980
ITUPSAT 1 22 Oct 15:22:06 15:25:36 20° 92° (E) 15:29:03 437.325
AO-85 22 Oct 15:23:41 15:25:28 13° 330° (NNW) 15:27:16 145.980
BEESAT 22 Oct 15:35:35 15:39:39 27° 95° (E) 15:43:40 436.000
DOVE 4 22 Oct 15:39:56 15:41:02 11° 57° (ENE) 15:42:08 437.250
ISS 22 Oct 15:42:26 15:45:40 61° 214° (SW) 15:48:54 437.550
ITAMSAT 1 22 Oct 15:46:41 15:51:52 79° 256° (WSW) 15:57:08 435.822/435.867
AO-7 22 Oct 15:58:33 16:06:40 58° 257° (WSW) 16:14:50 .
MOZHAYETS 4 22 Oct 16:06:57 16:11:31 63° 101° (E) 16:16:02
DX 1 22 Oct 16:14:54 16:17:07 14° 301° (WNW) 16:19:19 434.975-435.025
CUBESAT XI-V 22 Oct 16:24:59 16:28:39 23° 93° (E) 16:32:17 437.345
UKube-1 22 Oct 16:33:58 16:36:02 13° 301° (WNW) 16:38:06 .
CUTE-I 22 Oct 16:36:36 16:39:05 13° 55° (NE) 16:41:35 437.470
nSIGHT-1 22 Oct 16:40:35 16:42:45 17° 224° (SW) 16:44:54 .
SO-50 22 Oct 16:49:25 16:51:35 13° 251° (WSW) 16:53:46 436.795
XW-2B 22 Oct 16:50:46 16:52:06 12° 62° (ENE) 16:53:25 145.730 - 145.750
PCSat 22 Oct 16:50:59 16:56:25 69° 56° (NE) 17:01:49 145.827
ITUPSAT 1 22 Oct 16:59:03 17:03:42 51° 290° (WNW) 17:08:19 437.325
XW-2C 22 Oct 17:12:29 17:15:17 20° 66° (ENE) 17:18:06 145.795 - 145.815
BEESAT 22 Oct 17:13:05 17:17:29 37° 292° (WNW) 17:21:52 436.000
DOVE 4 22 Oct 17:13:42 17:17:56 90° 296° (WNW) 17:22:24 437.250
HO-68 22 Oct 17:14:34 17:19:24 20° 51° (NE) 17:24:14 435.675
KKS-1 22 Oct 17:17:09 17:20:39 22° 94° (E) 17:24:08 437.445
ITAMSAT 1 22 Oct 17:31:25 17:32:11 10° 274° (W) 17:32:56 435.822/435.867
STARS 22 Oct 17:43:21 17:46:16 17° 91° (E) 17:49:11 437.465
MOZHAYETS 4 22 Oct 17:45:20 17:48:11 16° 299° (WNW) 17:50:59
KAITUO 1B 22 Oct 17:48:18 17:51:43 36° 71° (ENE) 17:55:09 145.475/437.950
XW-2F 22 Oct 17:54:06 17:57:47 54° 73° (ENE) 18:01:28 145.980 - 146.000
NUDT-PHONESAT 22 Oct 17:58:10 18:01:43 45° 72° (ENE) 18:05:16 437.300
AO-7 22 Oct 18:00:32 18:01:15 10° 277° (W) 18:01:57 .
CUBESAT XI-V 22 Oct 18:01:51 18:06:10 40° 290° (WNW) 18:10:27 437.345
LilacSat-2 22 Oct 18:04:29 18:08:18 85° 75° (ENE) 18:12:08 437.200
XW-2D 22 Oct 18:08:23 18:12:12 90° 322° (NW) 18:15:59 145.860 - 145.880
CUTE-I 22 Oct 18:12:58 18:18:17 80° 73° (ENE) 18:23:39 437.470
XW-2B 22 Oct 18:22:00 18:25:45 65° 258° (WSW) 18:29:32 145.730 - 145.750
PCSat 22 Oct 18:35:29 18:39:15 19° 254° (WSW) 18:43:01 145.827
CUBEBUG 2 22 Oct 18:44:49 18:49:00 32° 67° (ENE) 18:53:13 437.445
XW-2C 22 Oct 18:45:49 18:49:16 33° 263° (W) 18:52:43 145.795 - 145.815
ZACube-1 22 Oct 18:51:47 18:53:59 13° 60° (ENE) 18:56:10 437.345
KKS-1 22 Oct 18:53:08 18:57:21 41° 291° (WNW) 19:01:33 437.445
XW-2A 22 Oct 18:53:41 18:56:08 19° 67° (ENE) 18:58:35 145.665 - 145.685
CUTE 1.7 + AOD 2 22 Oct 18:54:24 18:58:34 61° 73° (ENE) 19:02:44 437.475
YUBILEINY 22 Oct 18:56:21 19:03:04 23° 60° (ENE) 19:09:45 435.215
SEEDS 22 Oct 18:56:52 19:00:46 40° 71° (ENE) 19:04:40 437.485
HO-68 22 Oct 18:58:57 19:06:07 83° 71° (ENE) 19:13:21 435.675
AAUSAT CUBESAT 2 22 Oct 19:13:30 19:16:59 27° 68° (ENE) 19:20:28 437.432
O/OREOS (USA 219) 22 Oct 19:17:16 19:18:53 12° 97° (E) 19:20:31 437.305
UWE-3 22 Oct 19:17:24 19:21:43 39° 69° (ENE) 19:26:05 435.000/436.395/437.385
STARS 22 Oct 19:18:35 19:22:55 52° 288° (WNW) 19:27:13 437.465
BEESAT 2 22 Oct 19:19:04 19:20:41 12° 31° (NNE) 19:22:17 435.950
KAITUO 1B 22 Oct 19:23:19 19:25:50 17° 268° (W) 19:28:21 145.475/437.950
Oscar 11 22 Oct 19:23:32 19:26:09 16° 62° (ENE) 19:28:47 .
BEESAT 3 22 Oct 19:28:40 19:32:09 28° 44° (NE) 19:35:34 437.485
XW-2F 22 Oct 19:30:45 19:32:13 12° 270° (W) 19:33:41 145.980 - 146.000
NUDT-PHONESAT 22 Oct 19:33:50 19:35:48 14° 269° (W) 19:37:47 437.300
STRAND 1 22 Oct 19:52:42 19:57:27 36° 97° (E) 20:02:09 437.568
CUTE-I 22 Oct 19:56:07 19:58:58 15° 272° (W) 20:01:50 437.470
AO-73 22 Oct 20:01:31 20:05:57 53° 72° (ENE) 20:10:23 145.935
DELFI C3 22 Oct 20:19:30 20:21:08 12° 61° (ENE) 20:22:46 145.870
CUBEBUG 2 22 Oct 20:21:22 20:25:33 31° 265° (W) 20:29:47 437.445
ZACube-1 22 Oct 20:25:02 20:29:37 81° 258° (WSW) 20:34:13 437.345
XW-2A 22 Oct 20:25:41 20:28:40 28° 263° (W) 20:31:40 145.665 - 145.685
